Temperature
29 31 31 31 31 32 31 31 31 31 31 31 30 30 30 29 28 28 27 26 25 24 24 23 22 22 21 21 21 21 20 21 20 20 19 19 19 19 19 19 19 19 19 18
30 31 32 32 31 31 31 31 31 31 31 30 30 30 30 29 28 28 27 26 26 25 24 23 22 22 22 21 21 21 21 21 21 20 20 19 19 19 19 19 19 19 18 18
30 31 31 31 31 31 31 31 31 31 30 31 30 30 30 30 28 27 27 27 26 25 25 23 22 22 21 21 21 21 21 21 20 20 20 19 19 19 19 18 18 19 18 18
31 31 31 31 31 31 31 31 31 30 30 31 30 30 30 30 29 29 27 26 26 25 24 24 23 22 22 21 21 21 21 21 21 20 20 19 19 19 19 18 18 18 18 18
31 31 31 31 31 31 31 31 31 31 31 31 31 30 31 30 30 29 28 27 26 25 25 24 23 22 22 22 21 21 21 21 21 20 20 20 19 19 19 18 18 18 18 18
31 31 31 31 31 31 31 30 30 30 31 30 30 30 30 31 30 30 29 27 26 25 24 24 23 22 22 22 21 21 21 21 20 20 20 20 19 19 19 18 18 18 18 18
30 30 31 31 30 30 31 30 30 29 30 30 30 30 30 30 30 30 29 27 26 25 25 24 23 22 22 21 21 21 21 21 20 20 20 20 20 19 19 18 18 18 18 18
29 30 31 31 31 30 31 31 30 29 29 30 30 30 30 30 29 28 28 27 26 25 25 24 23 22 22 21 21 21 20 20 20 20 20 20 19 19 18 18 18 18 18 17
30 30 31 31 31 31 30 31 32 31 30 30 30 30 30 29 29 28 28 27 26 25 24 24 23 22 22 21 21 21 21 20 20 20 20 20 19 19 18 18 18 18 18 17
31 29 30 30 30 30 31 31 31 30 28 29 30 30 30 29 29 29 28 27 26 25 24 24 23 22 22 21 21 21 20 20 20 20 19 19 19 19 19 18 18 18 18 17
30 30 30 30 30 30 30 30 30 30 30 29 29 30 31 29 29 29 28 27 26 25 24 23 23 22 22 21 21 21 20 20 20 19 19 19 19 19 18 18 18 18 17 17
29 30 30 30 30 30 30 30 30 29 29 29 29 30 30 30 29 28 27 26 25 24 24 23 23 22 21 21 21 20 20 20 20 19 19 19 18 18 18 18 18 17 17 17
29 29 28 29 29 29 29 30 30 30 30 29 29 29 29 29 28 27 26 25 24 23 23 23 22 21 21 21 21 20 20 19 19 19 19 18 18 18 18 17 17 17 17 17
28 29 29 29 29 30 29 29 29 30 30 30 29 29 29 28 28 27 25 24 23 23 22 22 22 21 20 20 20 20 19 19 19 19 18 18 18 18 17 17 17 17 17 17
28 28 29 29 29 30 29 29 29 29 29 29 29 29 29 28 27 26 24 23 22 22 22 21 21 20 20 20 19 19 19 19 19 18 18 18 18 18 17 17 17 17 17 16
27 28 28 28 29 29 29 29 29 29 29 29 29 28 29 27 25 24 23 23 22 21 21 20 20 20 19 19 19 19 19 19 18 18 18 18 18 17 17 17 16 16 16 16
27 27 27 28 28 28 28 28 29 28 28 28 28 28 27 26 25 24 23 22 21 20 20 20 20 19 19 19 19 19 18 18 18 17 17 17 17 17 16 16 16 16 16 15
25 25 27 27 27 26 28 28 28 27 27 27 27 26 26 24 23 22 21 21 20 20 19 19 19 19 19 19 18 18 18 18 18 17 17 17 17 16 16 16 16 15 15 15
25 25 26 27 26 27 27 26 26 26 26 25 25 25 24 23 23 22 20 20 19 19 18 18 18 18 18 18 18 18 18 17 17 17 17 17 16 16 16 15 15 15 15 15
24 24 25 26 25 26 26 25 25 25 25 24 24 23 23 23 24 23 19 18 18 18 18 18 18 18 17 17 18 17 17 17 17 17 16 16 16 16 16 16 15 15 15 15
24 24 25 25 25 26 24 24 24 24 24 22 22 22 21 22 22 20 18 18 17 17 17 17 17 17 17 17 17 17 17 17 17 16 16 16 16 15 15 15 15 15 14 14
24 24 24 25 24 24 22 23 23 22 21 21 21 20 20 20 19 18 17 17 17 17 17 17 16 17 16 16 16 16 16 16 16 16 15 15 15 15 15 15 15 14 14 14
23 23 23 23 23 21 20 21 20 20 20 19 19 19 19 18 18 17 17 17 16 16 16 16 16 16 16 16 16 15 15 15 15 15 15 15 15 14 14 14 14 14 14 14
22 21 22 21 21 20 19 19 19 18 18 18 18 18 18 18 17 17 17 16 16 16 16 15 15 15 15 15 15 15 15 15 15 15 14 14 14 14 14 14 14 14 14 14
21 20 21 20 20 20 19 18 18 18 17 17 17 17 17 17 17 16 16 16 16 16 15 15 15 15 15 15 15 15 14 14 14 14 14 14 14 14 14 13 13 13 13 13
21 20 20 20 20 19 19 18 17 17 16 16 16 16 16 16 16 16 15 15 15 15 15 15 15 15 14 14 14 14 14 14 14 14 14 14 14 13 13 13 13 13 13 13
Wind_Speed
8 9 8 7 7 6 5 5 3 2 3 4 5 4 3 5 6 7 7 7 8 8 8 7 8 8 7 7 8 8 7 7 6 4 4 4 3 3 2 2 2 1 0 1
9 11 8 6 7 7 7 7 4 3 3 4 5 4 3 5 7 7 8 8 8 8 8 8 8 9 9 9 8 8 8 8 7 5 4 3 3 3 3 2 2 2 1 1
13 6 5 7 8 8 8 8 6 4 4 6 6 6 5 5 6 7 8 8 8 8 9 9 9 9 9 9 9 8 8 8 8 7 5 4 4 3 3 3 3 2 2 1
11 7 7 9 9 9 7 5 6 6 7 5 6 5 5 6 7 7 8 8 9 9 9 8 8 9 9 9 9 8 8 8 8 8 6 6 5 4 4 3 3 2 2 1
9 8 9 10 8 8 5 3 6 7 8 7 7 7 4 7 6 6 7 8 8 8 9 8 8 8 8 9 9 8 8 7 8 8 8 7 6 5 3 3 3 2 2 2
8 7 8 7 6 7 5 5 7 8 9 9 7 8 5 4 4 4 6 7 7 7 8 8 8 7 7 8 8 8 8 7 7 8 8 8 7 5 4 4 3 3 2 2
10 10 8 7 8 9 10 9 7 8 8 7 4 7 4 1 2 3 4 5 6 7 7 7 8 8 7 8 8 8 8 8 7 7 7 7 7 7 6 5 4 3 3 2
12 11 10 9 10 8 10 11 9 7 7 5 6 7 2 2 2 3 3 4 5 6 6 7 7 8 7 8 8 8 8 7 7 7 7 6 6 6 5 5 4 4 3 2
9 9 7 8 8 9 9 10 10 10 10 9 6 5 4 4 4 5 5 5 5 5 6 6 7 7 7 8 8 8 8 8 7 8 7 7 6 5 4 4 4 3 2 2
7 8 8 8 8 8 9 8 8 9 8 9 7 8 5 5 5 5 5 5 5 5 6 6 6 6 7 7 7 7 8 7 7 7 7 6 6 6 5 4 4 3 3 2
10 10 9 10 10 10 9 10 9 9 10 10 9 4 1 4 5 5 5 5 5 5 6 6 5 6 6 6 6 7 7 7 7 7 6 6 6 6 6 5 5 4 4 3
9 9 10 10 7 5 10 10 11 11 10 10 11 5 2 2 3 4 4 4 4 4 5 5 5 6 5 5 6 6 6 7 6 6 6 6 6 6 6 6 5 5 4 4
6 8 9 10 10 10 10 10 12 12 11 11 12 6 4 3 3 3 3 3 4 4 4 4 5 5 5 5 5 5 5 5 6 6 6 6 6 6 6 5 5 5 5 4
5 9 11 11 7 7 10 10 11 13 12 12 11 8 4 3 3 2 2 3 3 3 4 4 4 4 4 4 4 4 4 4 5 5 5 5 5 5 5 5 5 5 5 4
6 9 10 10 8 8 10 11 11 13 13 13 10 8 6 4 3 2 3 3 3 3 3 3 3 4 4 4 4 3 3 3 4 4 5 5 5 5 5 5 5 5 5 4
5 8 9 11 10 10 11 11 12 12 12 12 11 9 4 1 1 2 3 4 4 3 3 3 3 3 4 3 3 3 4 4 4 4 4 4 4 4 4 5 5 5 5 4
5 7 9 11 9 10 13 11 11 9 9 10 10 6 2 2 2 2 2 3 2 2 2 2 2 2 2 3 3 3 4 4 4 4 4 4 4 4 4 4 4 4 4 5
6 7 8 10 8 13 5 1 4 6 5 4 4 2 2 2 2 2 2 2 2 2 2 2 2 2 3 3 3 3 4 4 4 4 3 4 4 4 4 4 4 4 4 4
6 6 8 9 12 10 4 0 2 5 4 1 2 1 1 2 4 4 2 2 2 2 2 2 2 2 2 2 3 3 3 4 4 3 3 3 3 3 3 4 4 4 4 4
4 7 9 9 12 11 2 1 1 5 6 1 2 2 3 4 6 2 3 2 2 2 2 2 2 2 2 2 3 4 3 3 3 2 2 2 3 3 4 4 4 3 3 4
7 7 10 11 12 6 4 2 3 7 2 3 1 1 2 3 2 3 3 3 2 2 2 2 2 2 1 1 2 3 2 2 2 2 2 3 3 3 4 4 4 4 4 3
7 7 8 9 11 6 4 1 1 3 5 3 2 1 1 2 4 4 3 3 2 2 2 2 2 1 1 1 1 2 1 1 1 2 2 2 2 3 3 3 4 4 4 5
5 4 4 4 2 4 3 2 4 4 3 3 3 2 0 2 3 3 2 2 2 2 2 1 1 1 1 1 0 0 0 1 1 2 2 2 2 3 2 3 4 5 5 5
3 1 3 3 1 1 2 2 4 4 4 4 3 2 1 2 2 2 1 2 1 2 1 1 1 1 1 1 1 1 1 1 2 2 2 2 2 3 3 3 4 5 5 5
2 3 3 4 2 1 1 1 3 4 4 3 2 1 1 1 1 1 1 1 1 1 1 1 1 1 1 1 1 1 1 2 2 2 2 3 3 3 3 3 4 5 4 4
4 4 5 3 1 2 2 3 3 3 3 3 3 1 0 1 1 1 1 1 1 1 1 2 2 2 2 2 2 2 2 3 3 3 4 3 4 3 4 4 4 3 4 4
Wind_Direction
202 221 226 230 242 267 272 268 260 241 209 239 242 245 213 194 206 203 198 194 197 201 194 193 197 197 193 192 196 197 199 190 191 192 195 188 183 186 176 166 138 157 235 171
209 225 234 243 241 246 247 249 240 227 224 249 250 248 223 203 211 213 206 203 201 201 197 198 201 200 198 196 199 199 200 195 196 191 196 195 196 192 183 173 149 172 192 224
224 223 221 231 227 234 243 252 250 241 228 228 243 234 211 200 207 214 215 215 210 207 204 201 204 204 201 200 200 201 201 194 195 191 189 186 186 195 182 184 174 171 185 198
229 225 224 230 230 242 244 251 252 236 239 241 241 260 206 204 207 209 211 213 215 211 210 206 204 205 204 200 197 198 198 196 194 194 196 195 196 203 199 193 172 170 178 192
216 217 226 231 231 240 258 246 239 240 248 254 236 263 219 200 214 211 210 211 213 210 209 206 206 203 203 197 193 188 188 191 194 197 198 205 214 214 203 188 168 189 176 198
232 221 233 235 230 226 211 211 216 232 244 247 241 256 245 211 221 221 213 207 208 206 202 201 200 198 198 196 193 188 184 189 192 198 203 206 211 210 201 189 180 191 187 193
217 218 214 220 214 206 220 232 231 229 231 244 211 246 256 166 217 235 220 204 202 198 197 193 194 195 197 197 196 193 189 190 191 195 199 201 205 203 201 203 193 207 202 193
215 214 206 211 225 222 224 241 252 260 261 250 205 241 221 158 207 217 212 199 191 191 192 191 192 194 195 196 195 192 188 190 191 193 196 198 199 205 203 204 208 202 210 201
223 220 195 208 223 231 224 237 258 266 269 265 241 235 209 189 197 203 201 196 193 190 189 188 187 187 188 191 191 190 187 190 193 194 192 197 198 202 196 189 202 204 198 190
236 232 208 199 208 221 245 246 243 253 261 263 249 236 232 200 210 210 207 201 191 186 188 190 185 182 185 188 188 189 189 191 191 192 194 188 186 190 191 194 190 193 193 193
236 232 213 203 218 219 210 226 241 254 260 267 266 251 176 204 214 214 209 200 195 195 193 188 184 177 177 179 179 183 187 189 191 188 187 188 187 187 189 193 193 194 198 194
224 236 231 220 214 245 233 236 233 243 249 255 268 262 128 185 204 205 201 184 182 190 193 186 178 170 169 170 172 172 183 187 186 182 181 187 191 193 194 193 191 192 197 202
207 231 228 218 205 205 224 231 238 248 250 251 257 249 145 164 191 189 182 176 184 187 186 185 176 168 167 167 169 170 180 185 180 179 183 187 195 195 196 193 191 193 199 203
239 238 242 247 244 222 224 230 234 242 248 250 252 258 225 220 216 204 189 186 185 179 184 184 175 167 162 159 162 174 182 181 175 177 182 183 188 184 188 189 191 196 198 200
229 238 242 255 262 254 246 243 235 241 255 263 260 260 263 256 249 206 182 182 181 176 182 180 177 166 163 161 163 171 177 173 162 166 178 177 177 175 180 184 188 189 197 201
230 246 244 246 244 247 250 247 241 242 249 254 258 259 264 294 165 179 180 180 182 178 180 181 177 167 165 165 165 162 168 165 163 170 172 166 167 172 180 185 188 189 193 204
228 233 242 248 242 246 243 241 241 237 241 248 255 258 208 199 188 179 167 160 164 173 166 161 161 159 153 156 159 165 168 161 163 166 167 169 174 183 192 196 190 195 197 204
237 239 239 248 238 245 254 327 257 242 248 266 264 254 204 189 154 129 120 132 139 149 147 148 156 155 155 151 148 153 154 155 162 166 165 171 180 183 186 191 200 205 208 211
240 232 241 242 241 243 223 185 255 241 237 333 293 225 160 160 166 143 91 74 101 104 116 129 145 148 146 148 146 150 162 159 161 166 169 171 175 179 185 196 204 207 205 211
197 225 242 240 248 250 239 76 283 239 228 34 303 234 202 201 222 172 100 81 80 77 90 103 114 118 118 136 155 154 166 166 168 176 180 180 184 192 203 208 206 202 207 213
207 218 236 243 248 254 38 37 225 232 272 32 357 271 210 208 334 92 119 113 112 102 94 99 103 96 89 122 141 149 160 177 181 180 174 183 199 205 210 210 205 207 213 212
244 242 240 247 248 246 50 111 270 8 22 13 13 11 168 111 95 108 114 112 106 94 88 91 97 83 72 90 134 155 178 198 188 181 184 189 210 229 214 209 210 212 216 213
244 277 276 275 298 63 59 58 33 13 359 357 355 351 165 134 123 118 114 103 92 80 65 63 74 77 62 56 87 209 281 202 185 189 205 214 221 229 222 216 217 219 220 230
210 283 245 235 164 92 93 55 28 16 1 354 350 337 168 133 126 125 104 85 72 69 69 56 52 49 30 357 328 299 287 251 215 219 234 239 240 242 232 235 234 233 234 238
262 225 232 230 216 215 153 18 360 2 1 353 348 324 163 139 128 108 88 65 36 20 360 328 309 321 321 308 296 281 272 257 239 243 255 257 252 252 248 248 259 255 251 254
238 241 244 254 241 269 289 324 335 343 337 333 335 338 123 132 121 103 71 41 9 337 321 301 296 302 303 291 278 280 273 259 250 249 256 262 262 256 254 252 259 266 256 240
Height
1504 1502 1500 1496 1495 1495 1496 1499 1500 1499 1498 1500 1501 1501 1502 1506 1508 1510 1513 1515 1517 1519 1522 1523 1524 1525 1526 1527 1528 1529 1531 1532 1533 1534 1536 1536 1537 1538 1538 1538 1538 1538 1537 1538
1500 1498 1494 1493 1494 1496 1497 1499 1500 1499 1497 1499 1500 1500 1499 1503 1505 1508 1510 1512 1514 1517 1519 1521 1522 1523 1525 1525 1526 1528 1529 1530 1531 1533 1534 1535 1536 1537 1537 1537 1537 1537 1537 1537
1495 1492 1492 1494 1495 1497 1495 1496 1497 1499 1498 1497 1500 1501 1498 1499 1503 1506 1508 1510 1512 1514 1516 1518 1520 1521 1522 1523 1524 1526 1527 1528 1529 1531 1532 1534 1534 1535 1536 1536 1536 1536 1536 1536
1490 1490 1492 1493 1493 1494 1496 1491 1494 1497 1500 1498 1499 1504 1497 1495 1498 1501 1504 1507 1509 1511 1513 1515 1517 1518 1520 1521 1522 1523 1525 1526 1527 1529 1530 1532 1533 1534 1534 1535 1535 1535 1535 1535
1489 1489 1491 1493 1491 1491 1493 1491 1493 1494 1496 1498 1496 1500 1494 1491 1495 1496 1500 1503 1505 1508 1510 1512 1514 1515 1517 1519 1520 1521 1522 1523 1525 1527 1528 1529 1531 1532 1533 1533 1533 1534 1534 1534
1485 1487 1488 1488 1488 1490 1491 1493 1494 1493 1492 1505 1497 1500 1497 1487 1491 1492 1495 1500 1503 1505 1507 1510 1512 1513 1515 1516 1518 1519 1520 1521 1522 1524 1526 1527 1528 1529 1530 1531 1532 1533 1533 1533
1489 1486 1486 1488 1489 1490 1490 1495 1503 1507 1506 1502 1492 1497 1493 1486 1488 1491 1494 1497 1500 1503 1505 1507 1509 1510 1512 1513 1515 1517 1518 1519 1520 1521 1523 1524 1526 1527 1528 1529 1530 1531 1532 1532
1491 1491 1483 1484 1485 1487 1487 1488 1503 1513 1509 1497 1493 1495 1487 1486 1490 1492 1494 1496 1498 1501 1502 1504 1506 1508 1509 1511 1512 1514 1515 1516 1518 1519 1520 1522 1523 1525 1526 1527 1528 1529 1530 1530
1483 1486 1479 1481 1482 1483 1487 1486 1480 1489 1492 1498 1491 1486 1483 1485 1488 1490 1492 1494 1496 1499 1501 1503 1504 1506 1507 1508 1510 1512 1513 1514 1515 1517 1519 1520 1521 1522 1524 1525 1526 1527 1527 1528
1475 1485 1478 1480 1482 1483 1481 1480 1484 1491 1506 1508 1496 1490 1486 1485 1486 1487 1489 1492 1495 1497 1499 1501 1502 1504 1505 1506 1508 1510 1511 1512 1514 1515 1516 1518 1519 1520 1522 1523 1524 1525 1525 1526
1474 1481 1480 1479 1482 1480 1484 1485 1485 1485 1487 1500 1503 1491 1475 1480 1483 1485 1488 1491 1493 1495 1497 1499 1501 1502 1504 1505 1506 1508 1509 1510 1512 1513 1514 1516 1517 1518 1520 1521 1522 1523 1523 1524
1475 1475 1479 1476 1473 1475 1476 1477 1481 1491 1492 1488 1492 1489 1474 1478 1481 1484 1487 1490 1493 1494 1496 1498 1499 1501 1502 1504 1505 1506 1507 1509 1510 1511 1512 1513 1515 1516 1517 1519 1519 1520 1521 1521
1475 1477 1486 1484 1480 1478 1477 1476 1475 1476 1479 1484 1489 1486 1474 1478 1482 1485 1488 1490 1492 1494 1495 1497 1498 1499 1501 1502 1503 1505 1506 1507 1508 1509 1510 1512 1513 1514 1515 1516 1517 1518 1518 1518
1477 1473 1478 1483 1476 1470 1475 1475 1474 1476 1478 1480 1479 1478 1475 1478 1481 1485 1488 1491 1492 1494 1495 1496 1497 1498 1499 1500 1501 1503 1504 1505 1506 1507 1508 1509 1509 1510 1512 1513 1514 1515 1515 1516
1475 1474 1472 1469 1468 1468 1470 1472 1473 1475 1473 1475 1474 1474 1475 1477 1480 1485 1488 1490 1491 1493 1494 1495 1496 1496 1497 1498 1499 1500 1501 1503 1503 1505 1506 1507 1507 1508 1509 1510 1511 1512 1513 1513
1474 1474 1473 1474 1469 1469 1471 1470 1470 1471 1471 1472 1472 1474 1473 1478 1482 1485 1487 1489 1490 1492 1493 1493 1494 1495 1496 1497 1498 1498 1499 1500 1501 1502 1503 1504 1505 1506 1507 1508 1509 1509 1510 1510
1473 1475 1477 1474 1469 1471 1475 1468 1466 1468 1468 1470 1472 1473 1475 1479 1482 1485 1486 1488 1489 1491 1491 1492 1493 1494 1495 1495 1496 1497 1498 1499 1500 1501 1501 1502 1502 1503 1504 1505 1506 1506 1507 1508
1476 1476 1474 1472 1477 1488 1470 1464 1465 1468 1470 1470 1472 1475 1477 1481 1484 1486 1487 1488 1489 1490 1491 1491 1492 1493 1494 1494 1495 1495 1496 1497 1498 1499 1499 1500 1501 1501 1502 1503 1503 1504 1505 1505
1474 1475 1473 1473 1476 1472 1469 1469 1470 1471 1473 1475 1475 1478 1480 1481 1482 1485 1488 1488 1489 1490 1490 1491 1491 1492 1492 1493 1493 1494 1495 1495 1496 1497 1497 1498 1498 1499 1500 1500 1501 1502 1502 1502
1475 1475 1474 1473 1478 1478 1470 1470 1472 1473 1476 1477 1478 1479 1480 1480 1478 1482 1487 1488 1488 1489 1489 1489 1490 1491 1491 1491 1492 1492 1493 1494 1494 1495 1495 1496 1496 1497 1498 1498 1499 1499 1499 1499
1474 1475 1473 1472 1473 1467 1472 1473 1473 1479 1478 1479 1479 1479 1480 1480 1482 1485 1486 1487 1488 1488 1488 1488 1489 1490 1490 1490 1491 1491 1492 1492 1492 1493 1493 1494 1494 1495 1495 1496 1496 1496 1496 1497
1472 1471 1473 1471 1475 1476 1476 1475 1476 1479 1481 1480 1481 1481 1482 1482 1484 1485 1485 1486 1486 1487 1487 1487 1488 1489 1489 1489 1489 1489 1490 1490 1490 1491 1491 1491 1492 1493 1493 1493 1493 1493 1494 1494
1472 1473 1470 1473 1476 1480 1480 1480 1482 1482 1482 1482 1482 1482 1483 1483 1484 1485 1485 1486 1486 1486 1486 1486 1487 1487 1487 1488 1488 1488 1488 1488 1488 1489 1489 1489 1489 1490 1490 1490 1490 1490 1490 1491
1474 1477 1475 1476 1477 1480 1481 1482 1483 1483 1483 1483 1483 1483 1483 1483 1484 1484 1485 1485 1485 1485 1486 1486 1486 1486 1486 1487 1486 1486 1486 1486 1486 1486 1487 1486 1487 1487 1487 1487 1487 1488 1488 1487
1475 1477 1476 1477 1479 1481 1482 1483 1483 1483 1483 1482 1482 1482 1483 1483 1483 1484 1484 1484 1485 1485 1485 1485 1485 1485 1485 1485 1485 1485 1485 1484 1484 1484 1484 1485 1485 1484 1484 1483 1483 1484 1483 1483
1476 1477 1476 1476 1480 1481 1482 1482 1483 1483 1482 1481 1481 1481 1482 1483 1483 1483 1484 1484 1484 1484 1484 1484 1484 1484 1484 1483 1483 1482 1482 1482 1482 1482 1482 1482 1482 1481 1481 1480 1480 1479 1479 1479